[[{"header":{"parameterUnit":"m.s-1","parameterCategory":2,"la1":30.2991,"la2":30.254,"lo1":-89.0895,"lo2":-89.0444,"dy":0.0017,"dx":0.0017,"nx":28,"ny":28,"refTime":"2024-04-21T09:00:00:Z","depth":"0","parameterNumber":2,"parameterNumberName":"U-component_of_CURRENTS"},"data":[0,0,0,0,0,0,0,0,0,0,0,0,0,0,0,0,0,0,0,0,0,0,0,0,0,0,0,0,0,0,0,0,0,0,0,0,0,0,0,0,0,0,0,0,0,0,0,0,0,0,0,0,0,0,0,0,0,0,0.1722,0.1723,0,0.1754,0.1755,0.1755,0.1746,0.1745,0.1745,0.1744,0.174,0.174,0.1741,0,0,0,0,0,0,0,0,0,0,0,0,0,0.1665,0.1665,0.1722,0.1723,0.1723,0.1754,0.1755,0.1755,0.1746,0.1745,0.1745,0.1744,0.174,0.174,0.1741,0,0,0,0,0,0,0,0,0,0,0,0,0,0.169,0.1666,0.1722,0.1724,0.1725,0.1754,0.1755,0.1755,0.1746,0.1745,0.1745,0.1744,0.174,0.174,0.1741,0.1757,0,0,0.1742,0.1742,0,0,0,0,0,0,0,0,0.1689,0.1692,0.1723,0.1724,0.1725,0.1747,0.1733,0.1755,0.1746,0.1735,0.1744,0.1744,0.1741,0.1742,0.1746,0.1757,0.1756,0.1742,0.1742,0.1743,0.1743,0,0,0,0,0,0,0,0.1687,0.1691,0.1732,0.1724,0.1725,0.1728,0.1731,0.1737,0.1739,0.1736,0.1736,0.1744,0.1741,0.1746,0.1746,0.1756,0.1742,0.1743,0.1743,0.1743,0.1801,0.1802,0,0,0,0,0,0,0.1688,0.1689,0.1731,0.1734,0.1708,0.173,0.1733,0.1739,0.174,0.174,0.1745,0.1743,0.1745,0.1745,0.1746,0.1786,0.1743,0.1743,0.1743,0.18,0.1801,0.1802,0,0,0,0,0,0,0.1687,0.1692,0.173,0.1714,0.1719,0.1732,0.1739,0.174,0.1747,0.1747,0.1746,0.175,0.1745,0.1745,0.1763,0.1785,0.1743,0.1744,0.1798,0.18,0.1802,0.1854,0,0,0,0,0,0,0.1685,0.1691,0.1696,0.1714,0.172,0.1753,0.174,0.1741,0.1753,0.1752,0.1752,0.1751,0.1744,0.1762,0.1763,0.1785,0.1744,0.1796,0.1799,0.1801,0.185,0.1857,0.1863,0,0,0,0,0,0.1683,0.1693,0.1696,0.1701,0.1727,0.1754,0.1758,0.1762,0.1754,0.1764,0.1767,0.1751,0.1778,0.1764,0.1765,0.1787,0.1795,0.1798,0.1801,0.1847,0.1856,0.1863,0,0,0,0,0,0,0.167,0.1694,0.1697,0.1714,0.1735,0.1754,0.1765,0.1767,0.1777,0.1774,0.1767,0.1767,0.1791,0.1784,0.1769,0.1811,0.1784,0.1787,0.1819,0.1827,0.1833,0.1833,0.1744,0,0,0,0,0,0.1671,0.1686,0.1709,0.1724,0.1735,0.175,0.1761,0.1767,0.178,0.1783,0.1785,0.179,0.1805,0.1811,0.1818,0.1842,0.1854,0.1857,0.1864,0.1869,0.187,0.1904,0.1914,0.1812,0.1812,0.1812,0,0,0.1669,0.1686,0.1693,0.1723,0.1738,0.1763,0.1755,0.1777,0.1798,0.1782,0.1807,0.1812,0.1816,0.1845,0.1854,0.184,0.1911,0.1872,0.1877,0.1875,0.1908,0.1918,0.1927,0.1814,0.1813,0.1813,0,0,0.1679,0.169,0.1707,0.1729,0.1759,0.1773,0.1782,0.1805,0.1815,0.1843,0.184,0.1859,0.1875,0.1888,0.1896,0.1941,0.1943,0.1944,0.1977,0.201,0.2019,0.2027,0.2083,0.2095,0.1948,0.1948,0.1948,0,0.1675,0.1701,0.1717,0.1743,0.1764,0.178,0.1805,0.1824,0.1851,0.1868,0.1855,0.1898,0.1897,0.1941,0.1956,0.1955,0.1982,0.1947,0.2019,0.2026,0.2033,0.2089,0.2102,0.1951,0.195,0.195,0.195,0,0.1701,0.1722,0.1737,0.1775,0.1799,0.1826,0.1857,0.1882,0.1894,0.1912,0.1953,0.196,0.1986,0.1992,0.1987,0.2041,0.2049,0.2023,0.1999,0.2047,0.2103,0.2115,0.1955,0.1954,0.1953,0.1952,0,0,0.1689,0.1743,0.1748,0.1773,0.1818,0.1843,0.1886,0.1931,0.1962,0.1986,0.2028,0.2054,0.2058,0.2066,0.2068,0.2093,0.2171,0.2081,0.2082,0.2137,0.2272,0.2327,0.2346,0.2159,0.216,0.2162,0.2303,0,0.1704,0.1752,0.1777,0.1827,0.1856,0.1891,0.1929,0.1971,0.2003,0.2048,0.2069,0.2105,0.2088,0.2105,0.2131,0.216,0.2201,0.2137,0.2217,0.2221,0.2262,0.2361,0.2321,0.2447,0.2314,0.2316,0.2318,0,0.1718,0.1753,0.1795,0.1858,0.1873,0.1903,0.1971,0.2008,0.2073,0.2097,0.2141,0.2162,0.2222,0.2183,0.2274,0.2237,0.2262,0.2277,0.2282,0.232,0.2298,0.2372,0.2474,0.2417,0.2337,0.2335,0.2334,0,0.17,0.1765,0.1799,0.1821,0.1891,0.1917,0.1955,0.2018,0.2063,0.2131,0.2175,0.2235,0.2283,0.2317,0.2373,0.2327,0.2473,0.241,0.2489,0.2493,0.2468,0.2468,0.252,0.2471,0.247,0.247,0.2469,0,0.1703,0.1732,0.1793,0.1812,0.1858,0.1909,0.1964,0.2006,0.2085,0.2151,0.2197,0.2276,0.2317,0.2407,0.2422,0.2531,0.2525,0.2527,0.2542,0.249,0.249,0.2443,0.2398,0.2475,0.2474,0.2473,0.2472,0,0.1672,0.1711,0.1755,0.1825,0.1845,0.1875,0.1963,0.2005,0.2085,0.2177,0.2208,0.2337,0.2469,0.2529,0.2616,0.2619,0.2637,0.2718,0.2675,0.2683,0.2678,0.2637,0.2608,0.2525,0.2825,0.2827,0.2829,0,0.1658,0.1675,0.1746,0.1765,0.1792,0.185,0.1883,0.1979,0.2029,0.2225,0.2264,0.2444,0.2554,0.2738,0.28,0.2884,0.2751,0.2873,0.2765,0.2712,0.2676,0.2527,0.2446,0.2763,0.2764,0.2765,0.2766,0,0.1624,0.1646,0.1676,0.1723,0.1756,0.1809,0.1869,0.1922,0.2054,0.215,0.2314,0.2433,0.2667,0.2769,0.2912,0.2944,0.2758,0.2898,0.284,0.265,0.2492,0.2407,0.2649,0.2775,0.2774,0.2773,0.2773,0.2772,0.1583,0.1594,0.1632,0.1673,0.1711,0.1758,0.1784,0.1876,0.1975,0.2126,0.2289,0.2447,0.2673,0.2887,0.2906,0.2947,0.2855,0.2869,0.2835,0.2697,0.2578,0.2869,0.3007,0.3007,0.3008,0.3008,0.3008,0,0.1533,0.1552,0.1583,0.1623,0.1642,0.1691,0.1762,0.1791,0.1885,0.2074,0.2214,0.2473,0.2624,0.2775,0.2938,0.2885,0.2697,0.2816,0.257,0.2497,0.2777,0.2735,0.2824,0.2824,0.2824,0.2824,0.2824,0.2824,0.1503,0.1509,0.1533,0.1544,0.1572,0.1581,0.1612,0.1677,0.1795,0.1974,0.2134,0.2303,0.261,0.2857,0.289,0.2821,0.2568,0.2509,0.2433,0.2625,0.2625,0.2624,0.2574,0.2627,0.2627,0.2051,0.2047,0.2044]},{"header":{"parameterUnit":"m.s-1","parameterCategory":2,"la1":30.2991,"la2":30.254,"lo1":-89.0895,"lo2":-89.0444,"dy":0.0017,"dx":0.0017,"nx":28,"ny":28,"refTime":"2024-04-21T09:00:00:Z","depth":"0","parameterNumber":3,"parameterNumberName":"V-component_of_CURRENTS"},"data":[0,0,0,0,0,0,0,0,0,0,0,0,0,0,0,0,0,0,0,0,0,0,0,0,0,0,0,0,0,0,0,0,0,0,0,0,0,0,0,0,0,0,0,0,0,0,0,0,0,0,0,0,0,0,0,0,0,0,-0.0536,-0.0537,0,-0.063,-0.0631,-0.0633,-0.0692,-0.0692,-0.0692,-0.0692,-0.0755,-0.0756,-0.0758,0,0,0,0,0,0,0,0,0,0,0,0,0,-0.0509,-0.0508,-0.0536,-0.0537,-0.0538,-0.063,-0.0631,-0.0633,-0.0692,-0.0692,-0.0692,-0.0693,-0.0754,-0.0756,-0.0758,0,0,0,0,0,0,0,0,0,0,0,0,0,-0.0554,-0.0508,-0.0536,-0.0578,-0.0582,-0.063,-0.0631,-0.0633,-0.0692,-0.0692,-0.0692,-0.0693,-0.0754,-0.0756,-0.0758,-0.0765,0,0,-0.0765,-0.0766,0,0,0,0,0,0,0,0,-0.0552,-0.0555,-0.0571,-0.0575,-0.058,-0.0649,-0.0645,-0.0675,-0.0692,-0.0652,-0.0692,-0.0693,-0.0715,-0.0721,-0.074,-0.0768,-0.077,-0.0765,-0.0766,-0.0767,-0.0768,0,0,0,0,0,0,0,-0.0548,-0.0552,-0.0575,-0.0572,-0.0578,-0.0627,-0.0633,-0.0652,-0.0681,-0.0655,-0.0659,-0.0668,-0.0718,-0.0738,-0.0742,-0.0771,-0.0765,-0.0767,-0.0768,-0.0769,-0.0832,-0.0832,0,0,0,0,0,0,-0.0528,-0.0548,-0.0572,-0.0577,-0.0565,-0.0626,-0.0633,-0.0627,-0.0681,-0.069,-0.0667,-0.067,-0.0734,-0.0739,-0.0744,-0.0764,-0.0767,-0.0769,-0.077,-0.0831,-0.0832,-0.0832,0,0,0,0,0,0,-0.0527,-0.0529,-0.0568,-0.0565,-0.0574,-0.0625,-0.0619,-0.0629,-0.0648,-0.0691,-0.0699,-0.0676,-0.0734,-0.0741,-0.0766,-0.0766,-0.077,-0.0772,-0.0831,-0.0831,-0.0832,-0.0798,0,0,0,0,0,0,-0.0526,-0.0527,-0.0517,-0.0563,-0.0573,-0.0589,-0.0619,-0.063,-0.0652,-0.0657,-0.0701,-0.0707,-0.0735,-0.0763,-0.0768,-0.0769,-0.0774,-0.083,-0.0831,-0.0832,-0.0799,-0.0797,-0.0796,0,0,0,0,0,-0.0524,-0.0505,-0.0516,-0.0519,-0.0556,-0.0588,-0.0598,-0.0638,-0.0652,-0.0657,-0.0693,-0.0706,-0.0771,-0.0765,-0.0771,-0.0773,-0.083,-0.0831,-0.0832,-0.0799,-0.0798,-0.0796,0,0,0,0,0,0,-0.0482,-0.051,-0.0523,-0.0512,-0.0545,-0.0598,-0.0603,-0.0632,-0.0666,-0.0666,-0.0709,-0.0718,-0.0741,-0.0762,-0.0754,-0.0794,-0.0803,-0.0805,-0.0776,-0.0775,-0.0774,-0.0748,-0.0776,0,0,0,0,0,-0.0468,-0.0465,-0.0502,-0.0494,-0.0503,-0.0552,-0.057,-0.0597,-0.0633,-0.0649,-0.0684,-0.0719,-0.075,-0.0765,-0.0793,-0.0811,-0.0821,-0.0818,-0.0817,-0.0815,-0.08,-0.0836,-0.0836,-0.0835,-0.0835,-0.0835,0,0,-0.0452,-0.0466,-0.0465,-0.0487,-0.0512,-0.0522,-0.0563,-0.0581,-0.0595,-0.0647,-0.0671,-0.0711,-0.0754,-0.0781,-0.0792,-0.0797,-0.0818,-0.0816,-0.0815,-0.08,-0.0837,-0.0837,-0.0837,-0.0835,-0.0835,-0.0835,0,0,-0.0418,-0.0425,-0.0412,-0.0433,-0.0463,-0.0495,-0.0496,-0.0545,-0.0569,-0.0599,-0.0644,-0.0685,-0.0727,-0.0767,-0.079,-0.0797,-0.081,-0.0805,-0.0778,-0.0814,-0.0814,-0.0814,-0.081,-0.081,-0.0806,-0.0806,-0.0806,0,-0.0395,-0.0383,-0.0416,-0.041,-0.042,-0.0477,-0.0468,-0.0504,-0.0559,-0.0574,-0.0596,-0.0678,-0.0721,-0.076,-0.0771,-0.0793,-0.0799,-0.078,-0.0811,-0.0812,-0.0812,-0.0808,-0.0809,-0.0804,-0.0804,-0.0805,-0.0805,0,-0.0356,-0.0348,-0.034,-0.0351,-0.0368,-0.0371,-0.0417,-0.0441,-0.0477,-0.0517,-0.0561,-0.0632,-0.0678,-0.0708,-0.0743,-0.0773,-0.077,-0.0803,-0.081,-0.081,-0.0806,-0.0807,-0.0802,-0.0803,-0.0803,-0.0803,0,0,-0.0295,-0.0309,-0.0306,-0.03,-0.0335,-0.0342,-0.0361,-0.0394,-0.0396,-0.0469,-0.0481,-0.0569,-0.061,-0.0639,-0.0697,-0.0739,-0.076,-0.0769,-0.0771,-0.0754,-0.0804,-0.0763,-0.076,-0.08,-0.08,-0.08,-0.0792,0,-0.0253,-0.0225,-0.0249,-0.023,-0.0219,-0.0269,-0.0278,-0.0317,-0.0358,-0.0386,-0.0474,-0.0505,-0.0583,-0.0601,-0.066,-0.0733,-0.0763,-0.0756,-0.0815,-0.0816,-0.0772,-0.0761,-0.0741,-0.0729,-0.0794,-0.0794,-0.0794,0,-0.0203,-0.0193,-0.0159,-0.0162,-0.0159,-0.0158,-0.0173,-0.0191,-0.0249,-0.0281,-0.0342,-0.04,-0.0477,-0.0539,-0.0657,-0.0646,-0.0714,-0.0775,-0.0777,-0.0748,-0.0777,-0.0745,-0.0729,-0.0893,-0.0796,-0.0796,-0.0796,0,-0.0142,-0.013,-0.0099,-0.01,-0.0112,-0.0103,-0.0115,-0.0154,-0.0149,-0.0209,-0.0205,-0.0314,-0.0343,-0.0465,-0.0588,-0.0621,-0.0698,-0.0763,-0.0784,-0.0781,-0.0778,-0.0773,-0.0918,-0.0832,-0.0833,-0.0833,-0.0833,0,-0.0084,-0.006,-0.0063,-0.0044,-0.0002,-0.0036,0.0003,-0.003,-0.0048,-0.0017,-0.014,-0.0124,-0.0325,-0.0394,-0.0537,-0.0641,-0.0657,-0.076,-0.0778,-0.0763,-0.0758,-0.0911,-0.0997,-0.0832,-0.0832,-0.0832,-0.0832,0,-0.0018,-0.0024,0.0016,0.0023,0.0032,0.0063,0.0089,0.0116,0.0084,0.0123,0.0117,0.0031,-0.0052,-0.0233,-0.0402,-0.0538,-0.074,-0.0698,-0.0642,-0.0653,-0.0839,-0.0921,-0.1043,-0.1101,-0.0727,-0.0726,-0.0725,0,0.002,0.0049,0.008,0.0115,0.0126,0.0167,0.0201,0.0181,0.0226,0.0239,0.0278,0.0218,0.0204,-0.0026,-0.0274,-0.0489,-0.0668,-0.0614,-0.0691,-0.0827,-0.0935,-0.1009,-0.1055,-0.0671,-0.0669,-0.0668,-0.0667,0,0.0098,0.0108,0.0141,0.0216,0.0263,0.0319,0.0375,0.0434,0.0437,0.0481,0.0555,0.0552,0.0348,0.0155,-0.0144,-0.0325,-0.0715,-0.0597,-0.0778,-0.092,-0.0973,-0.1042,-0.0675,-0.0658,-0.0659,-0.066,-0.066,-0.0661,0.0161,0.0204,0.0254,0.0329,0.0386,0.0479,0.0555,0.063,0.0728,0.0828,0.0796,0.0827,0.0514,0.0113,-0.0141,-0.0608,-0.0633,-0.0775,-0.0864,-0.0926,-0.0988,-0.0567,-0.0551,-0.0551,-0.0552,-0.0552,-0.0552,0,0.0252,0.0296,0.0367,0.0458,0.0547,0.0554,0.068,0.077,0.0924,0.1009,0.1079,0.0953,0.0565,0.013,-0.0475,-0.0818,-0.098,-0.1028,-0.1171,-0.1207,-0.0868,-0.0874,-0.088,-0.088,-0.088,-0.088,-0.088,-0.088,0.0302,0.0395,0.043,0.0591,0.0658,0.0794,0.088,0.101,0.1107,0.1241,0.1273,0.1254,0.0922,-0.0174,-0.0966,-0.1165,-0.1414,-0.1456,-0.1584,-0.1407,-0.1392,-0.1378,-0.1407,-0.1525,-0.1526,-0.1894,-0.1898,-0.19]}],[{"header":{"parameterUnit":"m.s-1","parameterCategory":2,"la1":30.2991,"la2":30.254,"lo1":-89.0895,"lo2":-89.0444,"dy":0.0017,"dx":0.0017,"nx":28,"ny":28,"refTime":"2024-04-21T09:00:00:Z","depth":"2","parameterNumber":2,"parameterNumberName":"U-component_of_CURRENTS"},"data":[0,0,0,0,0,0,0,0,0,0,0,0,0,0,0,0,0,0,0,0,0,0,0,0,0,0,0,0,0,0,0,0,0,0,0,0,0,0,0,0,0,0,0,0,0,0,0,0,0,0,0,0,0,0,0,0,0,0,0.1665,0.1666,0,0.1717,0.1718,0.1718,0.1715,0.1715,0.1714,0.1714,0.1713,0.1714,0.1714,0,0,0,0,0,0,0,0,0,0,0,0,0,0.1588,0.1589,0.1665,0.1666,0.1667,0.1717,0.1718,0.1718,0.1715,0.1715,0.1714,0.1713,0.1713,0.1714,0.1714,0,0,0,0,0,0,0,0,0,0,0,0,0,0.1626,0.159,0.1665,0.1674,0.1675,0.1717,0.1718,0.1718,0.1715,0.1715,0.1714,0.1713,0.1713,0.1714,0.1714,0.1733,0,0,0.1716,0.1716,0,0,0,0,0,0,0,0,0.1624,0.1629,0.1671,0.1673,0.1675,0.1712,0.1691,0.1722,0.1715,0.1697,0.1714,0.1713,0.171,0.1711,0.1719,0.1733,0.1733,0.1716,0.1717,0.1717,0.1717,0,0,0,0,0,0,0,0.1621,0.1627,0.1683,0.1673,0.1675,0.1684,0.1688,0.1697,0.1704,0.1698,0.1699,0.171,0.171,0.1718,0.1719,0.1733,0.1716,0.1717,0.1717,0.1717,0.1784,0.1785,0,0,0,0,0,0,0.1621,0.1624,0.1681,0.1685,0.1651,0.1686,0.1691,0.1698,0.1705,0.1706,0.1711,0.171,0.1718,0.1718,0.1719,0.1764,0.1717,0.1718,0.1718,0.1782,0.1784,0.1785,0,0,0,0,0,0,0.1619,0.1625,0.1679,0.1658,0.1666,0.1689,0.1697,0.17,0.1711,0.1715,0.1715,0.172,0.1717,0.1718,0.1732,0.1763,0.1718,0.1718,0.1781,0.1783,0.1785,0.1839,0,0,0,0,0,0,0.1616,0.1624,0.1632,0.1658,0.1667,0.1708,0.1698,0.1701,0.1721,0.172,0.1723,0.1722,0.1717,0.1731,0.1733,0.1763,0.1719,0.1779,0.1782,0.1784,0.1836,0.1843,0.1849,0,0,0,0,0,0.1613,0.1626,0.1632,0.1639,0.1676,0.171,0.1715,0.1726,0.1722,0.1733,0.1734,0.1722,0.1749,0.1733,0.1734,0.1765,0.1778,0.1781,0.1784,0.1833,0.1841,0.1849,0,0,0,0,0,0,0.1595,0.1628,0.1635,0.1656,0.1684,0.171,0.1725,0.1732,0.1744,0.1741,0.1736,0.1736,0.1762,0.1756,0.1739,0.1793,0.1763,0.1767,0.18,0.1808,0.1815,0.1813,0.1719,0,0,0,0,0,0.1597,0.1616,0.1647,0.1666,0.168,0.1703,0.1719,0.173,0.1745,0.1749,0.1753,0.1761,0.1777,0.1785,0.1793,0.1821,0.183,0.1844,0.185,0.1856,0.1857,0.1896,0.1907,0.1795,0.1795,0.1795,0,0,0.1596,0.1618,0.1629,0.1665,0.1685,0.1712,0.171,0.1739,0.1764,0.1747,0.1776,0.1782,0.1789,0.1821,0.1832,0.1819,0.1897,0.186,0.1865,0.1862,0.1901,0.1911,0.1921,0.1798,0.1797,0.1797,0,0,0.1607,0.1623,0.1643,0.1668,0.1706,0.1723,0.1733,0.1765,0.178,0.181,0.1809,0.1832,0.1852,0.1869,0.1878,0.1928,0.1929,0.1935,0.197,0.2009,0.2018,0.2027,0.207,0.2082,0.194,0.194,0.194,0,0.1605,0.1633,0.1655,0.1682,0.1706,0.1729,0.1756,0.1781,0.1814,0.1835,0.1823,0.1877,0.1877,0.1929,0.1944,0.1944,0.1966,0.1938,0.2018,0.2026,0.2034,0.2076,0.2088,0.1943,0.1943,0.1943,0.1942,0,0.1633,0.1657,0.1672,0.1712,0.174,0.1768,0.1806,0.1835,0.1853,0.188,0.1932,0.1942,0.1974,0.1986,0.1976,0.2039,0.2039,0.202,0.1996,0.2048,0.2089,0.2101,0.1948,0.1947,0.1946,0.1945,0,0,0.1621,0.1679,0.1684,0.1708,0.1758,0.1785,0.1831,0.1883,0.1919,0.1955,0.2006,0.204,0.2051,0.2062,0.2068,0.2099,0.2172,0.2083,0.2084,0.2125,0.227,0.2245,0.2256,0.217,0.2172,0.2173,0.2284,0,0.1634,0.1684,0.1712,0.1761,0.1789,0.1827,0.1868,0.192,0.196,0.2014,0.2051,0.2095,0.2082,0.2102,0.2136,0.2161,0.2203,0.2144,0.2215,0.2217,0.2187,0.2268,0.2104,0.2186,0.2295,0.2297,0.2299,0,0.1647,0.1681,0.1726,0.1787,0.1803,0.1835,0.1906,0.1949,0.2027,0.2062,0.2122,0.2149,0.2216,0.2184,0.2274,0.224,0.2261,0.2276,0.228,0.2242,0.2213,0.2149,0.2203,0.2318,0.2316,0.2315,0.2314,0,0.1623,0.1689,0.1724,0.1745,0.1816,0.1846,0.1886,0.196,0.2011,0.2096,0.2148,0.2219,0.227,0.2309,0.2351,0.2318,0.2443,0.2401,0.2406,0.2404,0.227,0.2253,0.2465,0.2465,0.2464,0.2464,0.2464,0,0.1619,0.1648,0.1716,0.1733,0.178,0.1835,0.1896,0.1945,0.2035,0.2105,0.2171,0.2243,0.2302,0.238,0.2392,0.2453,0.2487,0.2432,0.2438,0.2286,0.227,0.2375,0.2363,0.2468,0.2467,0.2467,0.2466,0,0.1583,0.1626,0.1668,0.1741,0.1765,0.1798,0.1896,0.1942,0.2035,0.2131,0.2165,0.2288,0.2383,0.2447,0.2523,0.2516,0.2561,0.2568,0.2393,0.2375,0.2483,0.2473,0.2585,0.2585,0.2585,0.2585,0.2586,0,0.1568,0.1585,0.1659,0.1682,0.1713,0.1777,0.1816,0.1919,0.1976,0.2156,0.2196,0.2335,0.2406,0.2532,0.2548,0.2595,0.2603,0.2459,0.2357,0.2505,0.2499,0.2489,0.2478,0.221,0.2207,0.2204,0.2202,0,0.1533,0.1557,0.1589,0.1643,0.1683,0.1739,0.181,0.1854,0.1985,0.207,0.219,0.2266,0.2413,0.2392,0.2471,0.2465,0.2434,0.2411,0.2631,0.2201,0.2159,0.215,0.2151,0.2181,0.2183,0.2184,0.2186,0.2186,0.1499,0.1509,0.1553,0.1598,0.1646,0.1686,0.1705,0.1786,0.186,0.1968,0.2095,0.216,0.2237,0.2266,0.2234,0.2224,0.2367,0.2262,0.2266,0.2274,0.2207,0.2167,0.2179,0.2181,0.2182,0.2184,0.2185,0,0.1455,0.1472,0.151,0.1555,0.1578,0.1632,0.1688,0.1686,0.1725,0.1857,0.1938,0.1857,0.1889,0.196,0.1924,0.195,0.1893,0.1868,0.1771,0.1797,0.1819,0.1723,0.157,0.1567,0.1565,0.1563,0,0,0.1432,0.1436,0.1455,0.1471,0.1507,0.1509,0.1519,0.1518,0.1584,0.16,0.1643,0.1818,0.1929,0.1715,0.1715,0.1635,0.169,0.158,0.2087,0.2001,0.2019,0.2079,0.1967,0,0,0,0,0]},{"header":{"parameterUnit":"m.s-1","parameterCategory":2,"la1":30.2991,"la2":30.254,"lo1":-89.0895,"lo2":-89.0444,"dy":0.0017,"dx":0.0017,"nx":28,"ny":28,"refTime":"2024-04-21T09:00:00:Z","depth":"2","parameterNumber":3,"parameterNumberName":"V-component_of_CURRENTS"},"data":[0,0,0,0,0,0,0,0,0,0,0,0,0,0,0,0,0,0,0,0,0,0,0,0,0,0,0,0,0,0,0,0,0,0,0,0,0,0,0,0,0,0,0,0,0,0,0,0,0,0,0,0,0,0,0,0,0,0,-0.0151,-0.0152,0,-0.0254,-0.0256,-0.0257,-0.0321,-0.0321,-0.0321,-0.0322,-0.0366,-0.0366,-0.0367,0,0,0,0,0,0,0,0,0,0,0,0,0,-0.007,-0.0071,-0.0151,-0.0152,-0.0153,-0.0254,-0.0256,-0.0257,-0.0321,-0.0321,-0.0321,-0.0322,-0.0365,-0.0366,-0.0367,0,0,0,0,0,0,0,0,0,0,0,0,0,-0.0132,-0.0071,-0.015,-0.0197,-0.0202,-0.0254,-0.0256,-0.0257,-0.0321,-0.0321,-0.0322,-0.0322,-0.0365,-0.0366,-0.0368,-0.0365,0,0,-0.0371,-0.0372,0,0,0,0,0,0,0,0,-0.0128,-0.0135,-0.0189,-0.0194,-0.02,-0.0275,-0.0243,-0.029,-0.032,-0.0276,-0.0322,-0.0322,-0.033,-0.0334,-0.0353,-0.0367,-0.0369,-0.0371,-0.0372,-0.0373,-0.0373,0,0,0,0,0,0,0,-0.0124,-0.0131,-0.0192,-0.019,-0.0197,-0.0235,-0.0243,-0.0253,-0.0297,-0.028,-0.0284,-0.0296,-0.0332,-0.0351,-0.0354,-0.0369,-0.0371,-0.0373,-0.0373,-0.0374,-0.0434,-0.0434,0,0,0,0,0,0,-0.0108,-0.0127,-0.0188,-0.0195,-0.0165,-0.0235,-0.0245,-0.025,-0.0299,-0.0307,-0.0296,-0.0299,-0.0349,-0.0353,-0.0356,-0.0375,-0.0373,-0.0374,-0.0375,-0.0433,-0.0434,-0.0435,0,0,0,0,0,0,-0.0105,-0.0112,-0.0184,-0.0164,-0.0175,-0.0236,-0.0241,-0.0252,-0.0275,-0.0311,-0.0319,-0.0307,-0.035,-0.0354,-0.0358,-0.0377,-0.0375,-0.0376,-0.0432,-0.0433,-0.0434,-0.0401,0,0,0,0,0,0,-0.0102,-0.011,-0.0113,-0.0162,-0.0176,-0.0208,-0.0241,-0.0254,-0.0281,-0.0287,-0.0324,-0.0329,-0.035,-0.0356,-0.036,-0.0378,-0.0377,-0.0431,-0.0432,-0.0434,-0.0401,-0.0401,-0.0401,0,0,0,0,0,-0.0099,-0.0095,-0.0112,-0.012,-0.0176,-0.0208,-0.0218,-0.0263,-0.0281,-0.0286,-0.0308,-0.0328,-0.037,-0.0357,-0.0361,-0.038,-0.043,-0.0432,-0.0434,-0.0401,-0.0401,-0.0401,0,0,0,0,0,0,-0.0064,-0.0102,-0.0122,-0.0131,-0.0165,-0.0219,-0.023,-0.0259,-0.0284,-0.0287,-0.0319,-0.0325,-0.0341,-0.0362,-0.0347,-0.0406,-0.0411,-0.0414,-0.0385,-0.0385,-0.0385,-0.0367,-0.0378,0,0,0,0,0,-0.0055,-0.0062,-0.0106,-0.0114,-0.0126,-0.0177,-0.0198,-0.0227,-0.0256,-0.0269,-0.0297,-0.0329,-0.0353,-0.0367,-0.0389,-0.0406,-0.0416,-0.043,-0.0429,-0.0429,-0.0419,-0.0448,-0.0449,-0.0441,-0.0441,-0.0441,0,0,-0.0047,-0.0067,-0.0074,-0.0107,-0.0136,-0.0147,-0.019,-0.0215,-0.0228,-0.0266,-0.0286,-0.0319,-0.0355,-0.0381,-0.0393,-0.0399,-0.0436,-0.0431,-0.043,-0.0421,-0.045,-0.0451,-0.0451,-0.0442,-0.0442,-0.0442,0,0,-0.0023,-0.0046,-0.0041,-0.0064,-0.0101,-0.0128,-0.0131,-0.0182,-0.0207,-0.0226,-0.0265,-0.0298,-0.0337,-0.0372,-0.0391,-0.0401,-0.0428,-0.0429,-0.0418,-0.0446,-0.0447,-0.0447,-0.0449,-0.045,-0.0437,-0.0437,-0.0436,0,-0.0012,-0.001,-0.0046,-0.0047,-0.0059,-0.0112,-0.0108,-0.014,-0.0189,-0.0202,-0.0224,-0.0301,-0.033,-0.0367,-0.0383,-0.0399,-0.0415,-0.0411,-0.0444,-0.0444,-0.0445,-0.0448,-0.0449,-0.0435,-0.0435,-0.0435,-0.0436,0,0.0013,0.0013,0.0016,0.0002,-0.0015,-0.0021,-0.0063,-0.0085,-0.012,-0.0156,-0.0202,-0.0257,-0.0301,-0.0336,-0.0361,-0.0401,-0.0409,-0.0431,-0.0436,-0.0444,-0.0447,-0.0448,-0.0433,-0.0434,-0.0434,-0.0434,0,0,0.0049,0.0038,0.0038,0.0044,0.0012,0.0003,-0.001,-0.0035,-0.0041,-0.0111,-0.0124,-0.0204,-0.025,-0.0277,-0.0335,-0.0379,-0.0401,-0.0414,-0.0416,-0.0401,-0.0451,-0.0439,-0.044,-0.0437,-0.0437,-0.0438,-0.0446,0,0.0081,0.01,0.0082,0.01,0.0111,0.0068,0.0066,0.0031,-0.0006,-0.0032,-0.0115,-0.0147,-0.0224,-0.0251,-0.0308,-0.0373,-0.0407,-0.0395,-0.0459,-0.046,-0.0437,-0.0443,-0.0429,-0.0435,-0.0448,-0.0448,-0.0448,0,0.0115,0.0126,0.0152,0.0161,0.0161,0.0162,0.0152,0.0139,0.009,0.0057,-0.0007,-0.0064,-0.0139,-0.0199,-0.0316,-0.031,-0.0373,-0.0431,-0.0433,-0.0432,-0.0452,-0.0434,-0.0438,-0.0452,-0.0451,-0.0451,-0.0451,0,0.0165,0.0178,0.0204,0.0203,0.02,0.0205,0.0201,0.0166,0.017,0.0113,0.0111,0.0005,-0.003,-0.0144,-0.0264,-0.0292,-0.0376,-0.0422,-0.0468,-0.0467,-0.0471,-0.047,-0.049,-0.049,-0.049,-0.049,-0.049,0,0.0211,0.0232,0.023,0.0243,0.0282,0.0255,0.0286,0.0261,0.0245,0.027,0.016,0.0158,-0.0021,-0.0091,-0.0221,-0.0337,-0.0338,-0.0456,-0.0471,-0.0459,-0.0456,-0.0488,-0.0488,-0.0491,-0.0491,-0.049,-0.049,0,0.0259,0.0255,0.0291,0.03,0.0307,0.0332,0.0356,0.0378,0.0347,0.0377,0.0369,0.0284,0.0186,0.0023,-0.0136,-0.0256,-0.0382,-0.0419,-0.0378,-0.0389,-0.0465,-0.0463,-0.0479,-0.0479,-0.0478,-0.0478,-0.0478,0,0.0284,0.0307,0.0338,0.0367,0.0374,0.0407,0.0438,0.0426,0.0463,0.0464,0.0496,0.0417,0.037,0.0143,-0.0082,-0.0286,-0.0331,-0.0396,-0.0457,-0.0452,-0.0465,-0.0464,-0.0462,-0.0447,-0.0446,-0.0446,-0.0446,0,0.0341,0.0348,0.0377,0.0439,0.0479,0.0532,0.058,0.0626,0.0632,0.0657,0.0688,0.0651,0.0436,0.0227,-0.0049,-0.0197,-0.0371,-0.0395,-0.04,-0.0449,-0.0422,-0.0435,-0.0435,-0.0443,-0.0443,-0.0443,-0.0443,-0.0443,0.038,0.0418,0.046,0.0521,0.0574,0.0654,0.0714,0.0765,0.0835,0.088,0.0844,0.0792,0.0544,0.0188,-0.006,-0.0324,-0.0332,-0.0437,-0.0438,-0.044,-0.0432,-0.0406,-0.042,-0.0421,-0.0421,-0.0421,-0.0421,0,0.0436,0.0479,0.0541,0.062,0.0696,0.0709,0.0812,0.0863,0.0955,0.0985,0.0991,0.0776,0.0528,0.0251,-0.0138,-0.0375,-0.0417,-0.0446,-0.0452,-0.0453,-0.0454,-0.0449,-0.0441,-0.0442,-0.0442,-0.0443,0,0,0.0466,0.0543,0.0579,0.0714,0.0773,0.0884,0.095,0.1007,0.1048,0.1075,0.1051,0.0962,0.0622,0.0346,0.0013,-0.0208,-0.0277,-0.0257,-0.0217,-0.0187,-0.0185,-0.0428,-0.0418,0,0,0,0,0]}],[{"header":{"parameterUnit":"m.s-1","parameterCategory":2,"la1":30.2991,"la2":30.254,"lo1":-89.0895,"lo2":-89.0444,"dy":0.0017,"dx":0.0017,"nx":28,"ny":28,"refTime":"2024-04-21T09:00:00:Z","depth":"4","parameterNumber":2,"parameterNumberName":"U-component_of_CURRENTS"},"data":[0,0,0,0,0,0,0,0,0,0,0,0,0,0,0,0,0,0,0,0,0,0,0,0,0,0,0,0,0,0,0,0,0,0,0,0,0,0,0,0,0,0,0,0,0,0,0,0,0,0,0,0,0,0,0,0,0,0,0.0968,0.0969,0,0.1033,0.1034,0.1035,0.1076,0.1076,0.1077,0.1077,0.1128,0.1129,0.113,0,0,0,0,0,0,0,0,0,0,0,0,0,0.0829,0.0832,0.0968,0.0969,0.097,0.1033,0.1034,0.1035,0.1076,0.1076,0.1077,0.1077,0.1128,0.1129,0.113,0,0,0,0,0,0,0,0,0,0,0,0,0,0.0889,0.0833,0.0968,0.1,0.1004,0.1033,0.1034,0.1035,0.1076,0.1076,0.1077,0.1078,0.1128,0.1129,0.113,0.1125,0,0,0.1134,0.1135,0,0,0,0,0,0,0,0,0.0886,0.0894,0.0995,0.0998,0.1002,0.1049,0.1004,0.1065,0.1075,0.1046,0.1077,0.1078,0.1102,0.1105,0.1113,0.1127,0.1129,0.1135,0.1135,0.1136,0.1136,0,0,0,0,0,0,0,0.0882,0.0891,0.0992,0.0996,0.1,0.0995,0.1004,0.1015,0.1067,0.1048,0.1052,0.1063,0.1103,0.1111,0.1114,0.113,0.1135,0.1136,0.1137,0.1137,0.1227,0.1229,0,0,0,0,0,0,0.0881,0.0888,0.099,0.0994,0.0947,0.0997,0.1007,0.1032,0.1067,0.1074,0.1063,0.1065,0.1108,0.1112,0.1116,0.1181,0.1136,0.1137,0.1138,0.1226,0.1228,0.123,0,0,0,0,0,0,0.0878,0.089,0.0987,0.0943,0.0955,0.0999,0.1026,0.1033,0.1067,0.1078,0.1085,0.1093,0.1109,0.1114,0.1155,0.1181,0.1138,0.1139,0.1224,0.1226,0.1229,0.1266,0,0,0,0,0,0,0.0874,0.0889,0.0913,0.0944,0.0958,0.1018,0.1025,0.1033,0.1072,0.1076,0.1106,0.111,0.111,0.1153,0.1157,0.1182,0.114,0.1222,0.1225,0.1228,0.1263,0.1269,0.1275,0,0,0,0,0,0.0869,0.0895,0.0914,0.0927,0.0988,0.1019,0.1026,0.1056,0.1073,0.1089,0.1118,0.111,0.1174,0.1156,0.1159,0.1185,0.1221,0.1224,0.1228,0.126,0.1268,0.1275,0,0,0,0,0,0,0.085,0.0903,0.0924,0.0968,0.0999,0.1027,0.105,0.107,0.1106,0.1118,0.1128,0.1134,0.1181,0.118,0.1159,0.1222,0.1197,0.1201,0.122,0.1228,0.1234,0.1249,0.1141,0,0,0,0,0,0.0857,0.0892,0.0935,0.0971,0.099,0.1025,0.1046,0.1067,0.1099,0.1116,0.1143,0.117,0.1194,0.1209,0.123,0.126,0.1264,0.1281,0.1287,0.1292,0.1309,0.1308,0.1315,0.1241,0.1241,0.1241,0,0,0.0859,0.0894,0.0915,0.0969,0.0998,0.103,0.104,0.1079,0.111,0.1115,0.1174,0.1194,0.1209,0.1248,0.1268,0.1252,0.1324,0.1297,0.1301,0.1315,0.1313,0.132,0.1326,0.1244,0.1243,0.1243,0,0,0.0871,0.0915,0.0945,0.0973,0.1023,0.1046,0.1063,0.1111,0.114,0.119,0.1206,0.125,0.1284,0.1305,0.1316,0.1369,0.1357,0.1373,0.1413,0.1412,0.1418,0.1423,0.1466,0.1475,0.1373,0.1373,0.1373,0,0.0869,0.0921,0.0956,0.0989,0.1017,0.1057,0.1089,0.1122,0.1179,0.1205,0.1217,0.1294,0.1314,0.1356,0.1386,0.1384,0.139,0.1379,0.1418,0.1423,0.1427,0.147,0.1479,0.1375,0.1375,0.1374,0.1374,0,0.0897,0.0945,0.0964,0.1024,0.1054,0.1089,0.1135,0.1178,0.1221,0.1252,0.1318,0.1352,0.1395,0.1411,0.1421,0.1467,0.1466,0.1425,0.1394,0.1437,0.148,0.1489,0.1378,0.1377,0.1377,0.1376,0,0,0.0876,0.0966,0.0976,0.101,0.1077,0.1102,0.1159,0.1216,0.1259,0.1316,0.1368,0.1433,0.1456,0.1473,0.1488,0.1505,0.1564,0.1488,0.1487,0.1525,0.1593,0.1507,0.1508,0.1513,0.1514,0.1515,0.1622,0,0.089,0.0955,0.0997,0.1059,0.1095,0.1146,0.1195,0.1249,0.1302,0.1362,0.1404,0.1465,0.1473,0.1509,0.1525,0.1559,0.1583,0.1541,0.1554,0.1556,0.1465,0.1513,0.1518,0.1628,0.163,0.1631,0.1632,0,0.0902,0.0946,0.1008,0.1086,0.1107,0.1149,0.123,0.1281,0.1361,0.1405,0.1462,0.1495,0.1571,0.155,0.1623,0.1592,0.1606,0.1622,0.1624,0.1534,0.1483,0.1571,0.1647,0.1646,0.1645,0.1644,0.1643,0,0.0868,0.0953,0.1005,0.1031,0.1121,0.1161,0.1216,0.1298,0.1347,0.1443,0.1491,0.1553,0.161,0.1627,0.168,0.1653,0.1741,0.1693,0.1632,0.1628,0.1656,0.1649,0.1724,0.1724,0.1724,0.1724,0.1723,0,0.0861,0.0903,0.0998,0.1024,0.1087,0.1154,0.1229,0.1294,0.1381,0.1441,0.1516,0.1568,0.1628,0.1679,0.1698,0.1707,0.1753,0.1662,0.1643,0.1676,0.167,0.1664,0.1656,0.1728,0.1727,0.1726,0.1725,0,0.082,0.0885,0.0944,0.1042,0.1076,0.1123,0.1234,0.1282,0.1384,0.1462,0.15,0.1601,0.168,0.1731,0.1785,0.1735,0.175,0.1731,0.1818,0.1799,0.1641,0.1634,0.1681,0.1679,0.1677,0.1675,0.1674,0,0.0805,0.0834,0.0942,0.0979,0.1029,0.1111,0.1165,0.1274,0.1323,0.1472,0.1497,0.1612,0.1669,0.1696,0.1745,0.1779,0.1744,0.1746,0.1652,0.1657,0.1634,0.163,0.1626,0.167,0.167,0.1669,0.1669,0,0.0767,0.0815,0.0863,0.0939,0.1002,0.1065,0.115,0.1175,0.1302,0.1401,0.1471,0.1518,0.1601,0.1645,0.1684,0.1694,0.174,0.1725,0.1728,0.164,0.1645,0.1623,0.1621,0.1662,0.1663,0.1664,0.1664,0,0.0738,0.0759,0.0828,0.0888,0.0958,0.0998,0.1054,0.112,0.1183,0.1338,0.136,0.1488,0.1587,0.1604,0.1639,0.1647,0.1614,0.1546,0.1558,0.1566,0.1474,0.146,0.142,0,0,0,0,0,0.0704,0.0725,0.0772,0.0834,0.0896,0.0943,0.1033,0.1088,0.1205,0.1223,0.1288,0.1362,0.1429,0.1491,0.1477,0.1583,0.1614,0.1558,0.154,0.1624,0.1632,0.1531,0,0,0,0,0,0,0.0678,0.0726,0.0749,0.0772,0.0804,0.0867,0.0923,0.1004,0.1019,0.1142,0.1187,0.1283,0.1366,0.1429,0.1453,0.1471,0.1432,0.1636,0.1632,0.162,0.1627,0.1633,0.1532,0,0,0,0,0]},{"header":{"parameterUnit":"m.s-1","parameterCategory":2,"la1":30.2991,"la2":30.254,"lo1":-89.0895,"lo2":-89.0444,"dy":0.0017,"dx":0.0017,"nx":28,"ny":28,"refTime":"2024-04-21T09:00:00:Z","depth":"4","parameterNumber":3,"parameterNumberName":"V-component_of_CURRENTS"},"data":[0,0,0,0,0,0,0,0,0,0,0,0,0,0,0,0,0,0,0,0,0,0,0,0,0,0,0,0,0,0,0,0,0,0,0,0,0,0,0,0,0,0,0,0,0,0,0,0,0,0,0,0,0,0,0,0,0,0,0.0188,0.0187,0,0.0152,0.0151,0.0151,0.0124,0.0124,0.0124,0.0124,0.0107,0.0106,0.0106,0,0,0,0,0,0,0,0,0,0,0,0,0,0.0263,0.0262,0.0188,0.0187,0.0187,0.0152,0.0151,0.0151,0.0125,0.0124,0.0124,0.0124,0.0107,0.0106,0.0106,0,0,0,0,0,0,0,0,0,0,0,0,0,0.0229,0.0261,0.0188,0.0169,0.0167,0.0152,0.0151,0.0151,0.0125,0.0124,0.0124,0.0124,0.0107,0.0106,0.0106,0.0111,0,0,0.0105,0.0105,0,0,0,0,0,0,0,0,0.0231,0.0226,0.0173,0.0171,0.0168,0.0142,0.0171,0.0138,0.0125,0.0141,0.0124,0.0123,0.012,0.0119,0.0113,0.011,0.0109,0.0105,0.0105,0.0105,0.0105,0,0,0,0,0,0,0,0.0233,0.0228,0.0173,0.0172,0.0169,0.0173,0.0167,0.0165,0.0134,0.014,0.0137,0.0133,0.0119,0.0113,0.0112,0.0109,0.0105,0.0105,0.0104,0.0104,0.0095,0.0095,0,0,0,0,0,0,0.0236,0.023,0.0175,0.0172,0.0199,0.0172,0.0166,0.0151,0.0133,0.013,0.0134,0.0132,0.0114,0.0113,0.0112,0.0126,0.0105,0.0104,0.0104,0.0095,0.0095,0.0095,0,0,0,0,0,0,0.0238,0.0231,0.0176,0.0201,0.0194,0.0171,0.0155,0.015,0.0144,0.0128,0.0126,0.0131,0.0114,0.0112,0.0107,0.0124,0.0104,0.0104,0.0095,0.0095,0.0095,0.0148,0,0,0,0,0,0,0.024,0.0232,0.0227,0.0201,0.0193,0.0172,0.0155,0.015,0.0142,0.0139,0.0126,0.0123,0.0113,0.0107,0.0107,0.0124,0.0104,0.0095,0.0095,0.0095,0.0146,0.0149,0.0152,0,0,0,0,0,0.0243,0.0239,0.0226,0.022,0.0185,0.0172,0.0169,0.0151,0.0142,0.0143,0.0129,0.0124,0.0106,0.0107,0.0106,0.0124,0.0095,0.0095,0.0095,0.0145,0.0149,0.0152,0,0,0,0,0,0,0.0267,0.0235,0.0221,0.0206,0.0192,0.0168,0.0167,0.0155,0.0144,0.0142,0.0125,0.0122,0.0123,0.0112,0.0113,0.0117,0.0099,0.0099,0.0138,0.0141,0.0145,0.0147,0.0103,0,0,0,0,0,0.027,0.026,0.0231,0.0221,0.0213,0.019,0.0184,0.0172,0.0157,0.0152,0.0138,0.0125,0.0122,0.0122,0.0112,0.0119,0.0091,0.0126,0.013,0.0133,0.0132,0.0116,0.0118,0.0095,0.0095,0.0095,0,0,0.0278,0.0259,0.0253,0.0227,0.0212,0.0207,0.0186,0.0178,0.0179,0.0153,0.0148,0.0136,0.0124,0.0128,0.0128,0.0123,0.0119,0.0133,0.0136,0.0133,0.0116,0.0118,0.0121,0.0095,0.0095,0.0095,0,0,0.0293,0.027,0.0266,0.0256,0.0237,0.0225,0.0224,0.0199,0.0192,0.0185,0.0169,0.0162,0.0152,0.0149,0.0147,0.016,0.0134,0.016,0.0186,0.0171,0.0173,0.0175,0.012,0.0117,0.0166,0.0166,0.0166,0,0.0303,0.0291,0.0267,0.0263,0.026,0.0234,0.0237,0.0228,0.0206,0.0205,0.0188,0.017,0.0161,0.0173,0.0178,0.017,0.0144,0.0178,0.0177,0.0178,0.0179,0.0123,0.0118,0.0169,0.0169,0.0168,0.0168,0,0.0314,0.0307,0.0306,0.0291,0.0288,0.0287,0.027,0.0265,0.025,0.024,0.0236,0.0214,0.0204,0.0205,0.0198,0.0207,0.0178,0.0182,0.0172,0.0184,0.0124,0.0118,0.0172,0.0172,0.0171,0.017,0,0,0.0323,0.0316,0.0315,0.0318,0.0303,0.0302,0.0306,0.0303,0.0306,0.0283,0.0283,0.0277,0.0259,0.0254,0.0244,0.0235,0.0212,0.0217,0.0215,0.017,0.0151,0.012,0.011,0.0224,0.0224,0.0224,0.0099,0,0.0337,0.0345,0.0337,0.035,0.0352,0.0339,0.0346,0.0343,0.0331,0.0322,0.0304,0.0297,0.0281,0.0277,0.0267,0.0227,0.0203,0.0243,0.0138,0.0134,0.0113,0.0105,0.0223,0.0094,0.0093,0.0092,0.0091,0,0.0344,0.0351,0.0367,0.0379,0.0379,0.0386,0.0393,0.0397,0.0386,0.0375,0.0363,0.0338,0.0318,0.0302,0.0232,0.026,0.0209,0.0171,0.0166,0.0117,0.0094,0.0082,0.008,0.0081,0.0082,0.0082,0.0083,0,0.0358,0.037,0.0388,0.0391,0.0399,0.041,0.0417,0.0415,0.0423,0.0407,0.0401,0.0367,0.034,0.0287,0.0204,0.022,0.0112,0.0122,0.0037,0.0032,0.0074,0.0074,0.0069,0.007,0.007,0.007,0.0071,0,0.0367,0.0381,0.0399,0.0407,0.0435,0.0434,0.046,0.0456,0.0457,0.0465,0.0431,0.0415,0.034,0.0269,0.02,0.0088,0.0102,0.0029,0.0005,0.0094,0.0098,0.0068,0.0069,0.0065,0.0066,0.0067,0.0068,0,0.037,0.038,0.0404,0.0428,0.0439,0.0459,0.049,0.0506,0.0501,0.0505,0.05,0.0441,0.0345,0.0248,0.0136,0.0074,-0.0023,-0.0066,0.0001,-0.0017,-0.0099,-0.0094,-0.0178,-0.018,-0.0181,-0.0183,-0.0184,0,0.0369,0.0382,0.0421,0.0442,0.0454,0.0488,0.0512,0.0526,0.0542,0.0519,0.0518,0.0429,0.0376,0.0182,0.0085,-0.008,-0.0089,-0.0157,-0.0094,-0.0106,-0.0121,-0.0113,-0.0106,-0.0187,-0.0187,-0.0187,-0.0188,0,0.0369,0.0385,0.0407,0.0453,0.0485,0.0524,0.0558,0.0569,0.0577,0.0577,0.0525,0.0426,0.0306,0.0171,0.0031,-0.0074,-0.0117,-0.0174,-0.0171,-0.0112,-0.0117,-0.0129,-0.012,-0.0194,-0.0193,-0.0192,-0.0192,0,0.0366,0.0383,0.0416,0.0454,0.05,0.0536,0.0559,0.0571,0.0583,0.0561,0.0538,0.0419,0.0354,0.0171,0.0051,-0.0068,-0.0084,-0.0108,-0.0108,-0.0103,-0.0032,-0.0025,-0.0101,0,0,0,0,0,0.0357,0.0376,0.0415,0.0455,0.0504,0.0534,0.0576,0.0595,0.0604,0.0572,0.0557,0.0449,0.026,0.0183,0.0059,0.0017,-0.0111,-0.0133,-0.0139,-0.0225,-0.0219,-0.0149,0,0,0,0,0,0,0.0346,0.0382,0.0406,0.0449,0.0481,0.0534,0.0565,0.0575,0.056,0.0553,0.046,0.0417,0.024,0.0333,0.0057,0.002,-0.0002,-0.0215,-0.0218,-0.0229,-0.0223,-0.0218,-0.0144,0,0,0,0,0]}]]